Location: Passau
(48.5830°N, 13.4830°E)
Time: 05:50:12
(UTC+02:00)

Tiros 1 - Visible Passes

Search period start: 06 August 2021 00:00
Search period end: 16 August 2021 00:00
Orbit: 630 x 664 km, 48.4° (Epoch: 05 August)

Date Brightness Start Highest point End Pass type
(mag) Time Alt. Az. Time Alt. Az. Time Alt. Az.
06 Aug 7.8 22:16:20 10° W 22:20:49 42° SSW 22:23:10 24° SSE visible
07 Aug 9.5 00:00:15 10° WSW 00:00:47 11° WSW 00:00:47 11° WSW visible
07 Aug 8.5 22:42:35 10° W 22:46:28 25° SW 22:47:42 22° SSW visible
08 Aug 7.8 21:26:02 10° W 21:30:35 45° SSW 21:34:38 12° SE visible
08 Aug 9.3 23:09:40 10° WSW 23:11:55 13° SW 23:12:17 13° SW visible
09 Aug 8.6 21:52:15 10° W 21:56:14 27° SW 21:59:17 14° SSE visible
10 Aug 9.3 22:19:09 10° WSW 22:21:43 15° SW 22:23:59 11° SSW visible
11 Aug 8.6 21:01:55 10° W 21:06:01 29° SW 21:10:03 10° SSE visible
12 Aug 9.4 21:28:41 10° W 21:31:31 16° SW 21:34:19 10° S visible
